World > North America > United States > Texas > Union Hill

Hourly Union Hill, TX Regional Weather

Feedback E-mail the Weather

Quick WX

Union Hill, TX Weather Maps

°F °C°F °C
Union Hill Weather Map
UTC Time: 8/9/2022, 23:12
Your Time:

Union Hill, TX Regional Weather

Expires:202208100000;;759201
ASUS44 KFWD 092310
RWRTX 
NORTH TEXAS HOURLY WEATHER ROUNDUP
NATIONAL WEATHER SERVICE FORT WORTH TX
600 PM CDT TUE AUG 09 2022

NOTE: "FAIR" INDICATES FEW OR NO CLOUDS BELOW 12,000 FEET WITH NO
SIGNIFICANT WEATHER AND/OR OBSTRUCTIONS TO VISIBILITY.


TXZ095>097-106>112-122>126-135>138-148>153-164>167-100000-
EAST TEXAS
  
CITY           SKY/WX    TMP DP  RH WIND       PRES   REMARKS
PARIS          FAIR      83  73  72 SE8       30.01F                  
SULPHUR SPRNGS FAIR      76  72  87 NE3       30.01F                  
MOUNT PLEASANT FAIR      80  76  87 SE6       30.00F                  
ATLANTA        MOCLDY    77  75  94 SW3       30.00F                  
GILMER         LGT RAIN  73  68  84 CALM      30.01F                  
MINEOLA          N/A     73  72  94 CALM      29.99F                  
TYLER          FAIR      83  68  60 E7        29.98F                  
LONGVIEW       FAIR      81  68  64 CALM      30.01F                  
MARSHALL       FAIR      81  71  71 S3        30.04F                  
ATHENS         FAIR      91  64  40 SE7       29.96F HX  93           
PALESTINE      FAIR      88  72  58 E15G26    29.97S HX  94           
HENDERSON      FAIR      85  64  48 E9        30.02F                  
CENTER         LGT RAIN  79  73  83 CALM      30.05                   
NACOGDOCHES    FAIR      79  70  73 VRB3      30.01S                  
LUFKIN         FAIR      91  73  55 S12       29.99R HX  99           
$$

SUPPLEMENTAL OBSERVATIONS (NWS FORT WORTH AREA)
  
CITY           SKY/WX    TMP DP  RH WIND       PRES   REMARKS
CADDO GRASSLND   N/A     82  72  69 SE5         N/A                   
LBJ GRASSLAND    N/A     84  68  58 E8          N/A                   
GRANBURY         N/A     79  73  83 E13G32      N/A                   
MCGREGOR         N/A    100  61  27 SE6         N/A  HX 101           
TEMPLE           N/A    100  61  27 S7          N/A  HX 101           
$$

SUPPLEMENTAL OBSERVATIONS (NWS NORMAN AREA)
  
CITY           SKY/WX    TMP DP  RH WIND       PRES   REMARKS
GOODLETT         N/A     96  63  33 S5        29.98R HX  97           
ODELL            N/A     97  63  33 SW5       29.99R HX  98           
CROWELL          N/A     90  64  41 W9        29.99S HX  91           
KNOX CITY        N/A     86  65  50 SW5G18    30.01R                  
SEYMOUR          N/A     92  68  44 S5        29.98R HX  96           
$$

SUPPLEMENTAL OBSERVATIONS (NWS SAN ANGELO AREA)
  
CITY           SKY/WX    TMP DP  RH WIND       PRES   REMARKS
WEINERT          N/A     85  70  61 S3        30.01R                  
HASKELL          N/A     85  67  54 S9        30.01R                  
THROCKMORTON     N/A     84  68  58 CALM      29.99S                  
STAMFORD         N/A     82  69  65 S12       30.02R                  
CLYDE            N/A     79  67  66 N16       30.09R                  
HAMBY            N/A     82  63  51 NW13G36     N/A                   
$$

SUPPLEMENTAL OBSERVATIONS (NWS SHREVEPORT AREA)
  
CITY           SKY/WX    TMP DP  RH WIND       PRES   REMARKS
TEXARKANA        N/A     79  75  89 CALM        N/A                   
LUFKIN           N/A     88  72  58 MISG        N/A  HX  94           
N SABINE NF      N/A     81  72  74 MISG        N/A                   
$$

SUPPLEMENTAL OBSERVATIONS ARE A COLLECTION OF AUTOMATED INSTRUMENTS
THAT ARE MAINTAINED BY A VARIETY OF FEDERAL AND STATE AGENCIES. 
CERTAIN ELEMENTS...SUCH AS HUMIDITY VALUES AND SUSTAINED WIND 
SPEEDS...MAY BE APPROXIMATED.

  

SKY/WX - Weather  TMP - Temperature  DP - Dew Point  RH - Humidity
WIND - Wind Direction/Speed PRES - Barometric Pressure VSB - Visibility
WCI - Wind Chill Index E13G22 Wind - East Wind 13 mph/Gusts of 22 mph

Trending Headlines

Union Hill Radar Loop



Union Hill Quick Facts


National Two Day Weather Forecast


E-mail the Union Hill Weather Forecast

Voice your opinion or tell us about page issues...